sat.trackr.live / text

‹ back to catalog

STARLINK-4544

NORAD 53394 · 2022-097G

PAYLOAD ACTIVE UNKNOWN

§ Identity

Operator
Country
US
Launch date
2022-08-10
Launch site
AFETR
Launch vehicle
Mass (kg)
RCS (m²)

Purposes: comms

External: N2YO · Heavens-Above · Gunter

§ Orbital elements

Epoch: 2026-09-19T20:05:51.568224Z

Period
94.01 min
Inclination
53.1612°
Eccentricity
0.0001198
Mean motion
15.31703011 rev/d
Perigee alt
469.9 km
Apogee alt
471.6 km
Semi-major
6,848.9 km
B*
-5.1019e-6
RAAN
310.6633°
Arg perigee
82.6984°
Mean anomaly
277.4154°
Rev number
22,828

§ Raw data

STARLINK-45441 53394U 22097G   26262.83740241 -.00000523  00000+0 -51019-5 0  99932 53394  53.1612 310.6633 0001198  82.6984 277.4154 15.31703011228286

JSON: /api/v1/satellites/53394 · /tle

For live sub-satellite position, see the globe view (requires WebGL).

§ Visibility from observer

Set your observer location to see the next 7 days of passes ≥ 10°. The values pass through the URL so the page stays shareable.

No JS? Fill the form by hand. The geolocation button needs JavaScript.